Location: *
(2.5500°S, 65.9667°W)
Time: 05:52:58
(UTC+00:00)

Tiros 1 despin weight - Pass Details

Date: 21 April 2024
Orbit: 578 x 621 km, 48.2° (Epoch: 25 May)

Event Time Altitude Azimuth Distance (km) Brightness Sun altitude
Rises 02:33:35 0° 300° (WNW) 2,880 - -61.4°
Reaches altitude 10° 02:36:10 10° 288° (WNW) 1,974 - -62.0°
Maximum altitude 02:40:01 27° 230° (SW) 1,194 - -62.9°
Drops below altitude 10° 02:43:50 10° 172° (S) 1,965 - -63.8°
Sets 02:46:25 0° 160° (SSE) 2,864 - -64.4°
